Quillayute, WA

12:04 AM PST on January 24, 2018 (GMT -0800)
Quillayute

Weather History for KUIL - September, 2011

Change the Weather History Date:

Wednesday, September 21, 2011

  Actual Average Record
Temperature  
Mean Temperature 61 °F 56 °F  
Max Temperature 68 °F 65 °F 85 °F (1974)
Min Temperature 54 °F 46 °F 34 °F (1993)
Degree Days  
Heating Degree Days 4 9  
Month to date heating degree days 162  
Since 1 July heating degree days 531  
Cooling Degree Days 0 0  
Month to date cooling degree days 0  
Year to date cooling degree days 17  
Growing Degree Days 10 (Base 50)    
Moisture  
Dew Point 57 °F    
Average Humidity 89    
Maximum Humidity 100    
Minimum Humidity 61    
Precipitation  
Precipitation 0.98 in 0.13 in 1.43 in (1981)
Month to date precipitation 2.37  
Year to date precipitation 59.09  
Sea Level Pressure  
Sea Level Pressure 29.93 in    
Wind  
Wind Speed 6 mph (South)    
Max Wind Speed 15 mph    
Max Gust Speed 25 mph    
Visibility 5 miles    
Events Rain    
T = Trace of Precipitation, MM = Missing Value Source: NWS Daily Summary

Daily Weather History Graph

Daily Weather History Graph

Search for Another Location

Airport or City:

Trip Planner

Search our weather history database for the weather conditions in past years. The results will help you decide how hot, cold, wet, or windy it might be!

Date:

Astronomy

Sep. 21, 2011 Rise Set
Actual Time 7:03 AM PDT 7:18 PM PDT
Civil Twilight 6:32 AM PDT 7:49 PM PDT
Nautical Twilight 5:55 AM PDT 8:25 PM PDT
Astronomical Twilight 5:17 AM PDT 9:03 PM PDT
Moon 12:02 AM PDT (9/21) 3:56 PM PDT (9/21)
Length of Visible Light 13h 16m
Length of Day
12h 15m
Last Quarter, 37% of the Moon is Illuminated
Sep 21
Last Quarter
Sep 27
New
Oct 3
First Quarter
Oct 11
Full
Oct 19
Last Quarter

Hourly Weather History & Observations

Time (PDT) Temp. Dew Point Humidity Pressure Visibility Wind Dir Wind Speed Gust Speed Precip Events Conditions
12:53 AM 55.9 °F 53.1 °F 90% 29.97 in 10.0 mi East 4.6 mph - N/A   Mostly Cloudy
1:53 AM 55.9 °F 53.1 °F 90% 29.99 in 10.0 mi West 9.2 mph - N/A   Overcast
2:53 AM 57.0 °F 53.1 °F 87% 29.99 in 10.0 mi South 4.6 mph - N/A   Overcast
3:53 AM 57.0 °F 52.0 °F 83% 29.99 in 10.0 mi South 3.5 mph - N/A   Overcast
4:53 AM 55.0 °F 51.1 °F 86% 29.99 in 10.0 mi Calm Calm - N/A   Partly Cloudy
5:53 AM 54.0 °F 52.0 °F 93% 29.99 in 10.0 mi Calm Calm - N/A   Mostly Cloudy
6:53 AM 55.0 °F 52.0 °F 89% 29.97 in 10.0 mi East 4.6 mph - N/A   Scattered Clouds
7:53 AM 55.9 °F 52.0 °F 87% 29.96 in 10.0 mi East 3.5 mph - N/A   Scattered Clouds
8:53 AM 60.1 °F 53.1 °F 78% 29.96 in 10.0 mi Calm Calm - 0.00 in   Clear
9:53 AM 63.0 °F 52.0 °F 67% 29.98 in 10.0 mi Variable 4.6 mph - N/A   Partly Cloudy
10:53 AM 63.0 °F 52.0 °F 67% 29.99 in 10.0 mi South 6.9 mph - N/A   Scattered Clouds
11:53 AM 63.0 °F 51.1 °F 65% 29.97 in 10.0 mi SE 4.6 mph - N/A   Scattered Clouds
12:53 PM 64.0 °F 52.0 °F 65% 29.96 in 10.0 mi Variable 6.9 mph - 0.00 in   Mostly Cloudy
1:53 PM 66.9 °F 53.1 °F 61% 29.95 in 10.0 mi South 11.5 mph 20.7 mph N/A   Mostly Cloudy
2:53 PM 64.9 °F 53.1 °F 65% 29.93 in 10.0 mi South 9.2 mph 18.4 mph N/A   Scattered Clouds
3:53 PM 62.1 °F 52.0 °F 70% 29.93 in 10.0 mi South 13.8 mph 23.0 mph 0.00 in   Overcast
4:28 PM 60.8 °F 55.4 °F 82% 29.92 in 2.5 mi South 11.5 mph 19.6 mph 0.01 in Rain Light Rain
4:41 PM 59.0 °F 55.4 °F 88% 29.93 in 4.0 mi South 11.5 mph 20.7 mph 0.02 in Rain Light Rain
4:53 PM 59.0 °F 55.9 °F 90% 29.93 in 2.0 mi South 8.1 mph 23.0 mph 0.05 in Rain Light Rain
5:04 PM 59.0 °F 55.4 °F 88% 29.91 in 3.0 mi SSE 11.5 mph 18.4 mph 0.03 in Rain Light Rain
5:22 PM 59.0 °F 55.4 °F 88% 29.91 in 7.0 mi Variable 4.6 mph - 0.04 in Rain Light Rain
5:40 PM 59.0 °F 55.4 °F 88% 29.93 in 1.8 mi SSW 9.2 mph - 0.07 in Rain Rain
5:47 PM 59.0 °F 57.2 °F 94% 29.92 in 1.0 mi South 8.1 mph - 0.13 in Rain Heavy Rain
5:53 PM 59.0 °F 57.0 °F 93% 29.92 in 1.0 mi South 9.2 mph 16.1 mph 0.17 in Rain Rain
6:07 PM 57.2 °F 57.2 °F 100% 29.91 in 0.8 mi SSE 8.1 mph - 0.17 in Rain Heavy Rain
6:18 PM 57.2 °F 57.2 °F 100% 29.91 in 1.5 mi SSE 6.9 mph - 0.23 in Rain Light Rain
6:27 PM 59.0 °F 57.2 °F 94% 29.91 in 1.0 mi SSE 9.2 mph 16.1 mph 0.27 in Rain Rain
6:53 PM 60.1 °F 59.0 °F 96% 29.91 in 0.8 mi Variable 4.6 mph - 0.35 in Rain Rain
7:00 PM 60.8 °F 59.0 °F 94% 29.91 in 1.0 mi SSE 8.1 mph - 0.02 in Rain Light Rain
7:10 PM 60.8 °F 59.0 °F 94% 29.91 in 1.2 mi SSE 9.2 mph 16.1 mph 0.04 in Rain Light Rain
7:15 PM 60.8 °F 59.0 °F 94% 29.91 in 1.5 mi SSE 8.1 mph 19.6 mph 0.05 in Rain Light Rain
7:21 PM 60.8 °F 59.0 °F 94% 29.91 in 1.2 mi SSE 10.4 mph 18.4 mph 0.07 in Rain Rain
7:28 PM 60.8 °F 59.0 °F 94% 29.91 in 1.5 mi SSE 10.4 mph 18.4 mph 0.11 in Rain Rain
7:35 PM 60.8 °F 59.0 °F 94% 29.91 in 1.8 mi SSE 9.2 mph 18.4 mph 0.14 in Rain Rain
7:41 PM 60.8 °F 59.0 °F 94% 29.91 in 2.0 mi Variable 4.6 mph - 0.16 in Rain Rain
7:53 PM 60.1 °F 59.0 °F 96% 29.91 in 1.8 mi Calm Calm - 0.21 in Rain Rain
8:02 PM 60.8 °F 59.0 °F 94% 29.90 in 2.5 mi Variable 4.6 mph - 0.03 in Rain Light Rain
8:12 PM 60.8 °F 59.0 °F 94% 29.91 in 4.0 mi Variable 3.5 mph - 0.04 in Rain Light Rain
8:21 PM 60.8 °F 59.0 °F 94% 29.90 in 1.8 mi SE 11.5 mph 16.1 mph 0.05 in Rain Light Rain
8:31 PM 60.8 °F 60.8 °F 100% 29.90 in 3.0 mi SSE 8.1 mph - 0.06 in Rain Light Rain
8:45 PM 60.8 °F 60.8 °F 100% 29.90 in 10.0 mi SSE 9.2 mph - 0.06 in   Overcast
8:53 PM 62.1 °F 61.0 °F 96% 29.91 in 10.0 mi Variable 4.6 mph - 0.06 in   Overcast
9:04 PM 62.6 °F 60.8 °F 94% 29.91 in 6.0 mi South 8.1 mph - 0.01 in   Overcast
9:20 PM 62.6 °F 60.8 °F 94% 29.90 in 1.8 mi South 6.9 mph 18.4 mph 0.01 in Rain Light Rain
9:46 PM 62.6 °F 60.8 °F 94% 29.90 in 1.2 mi South 9.2 mph - 0.03 in Rain Light Rain
9:53 PM 62.1 °F 61.0 °F 96% 29.90 in 1.2 mi South 9.2 mph 16.1 mph 0.04 in Rain Light Rain
10:00 PM 62.6 °F 60.8 °F 94% 29.90 in 1.5 mi South 9.2 mph 17.3 mph 0.01 in Rain Light Rain
10:27 PM 62.6 °F 60.8 °F 94% 29.91 in 1.5 mi South 9.2 mph 18.4 mph 0.04 in Rain Light Rain
10:35 PM 62.6 °F 60.8 °F 94% 29.91 in 2.0 mi South 9.2 mph - 0.05 in Rain Light Rain
10:53 PM 62.1 °F 61.0 °F 96% 29.90 in 2.0 mi South 10.4 mph 18.4 mph 0.06 in Rain Light Rain
11:07 PM 62.6 °F 60.8 °F 94% 29.90 in 1.5 mi South 10.4 mph 21.9 mph 0.01 in Rain Light Rain
11:27 PM 60.8 °F 60.8 °F 100% 29.90 in 3.0 mi South 9.2 mph 17.3 mph 0.03 in Rain Light Rain
11:43 PM 60.8 °F 60.8 °F 100% 29.90 in 1.8 mi South 10.4 mph 20.7 mph 0.03 in   Overcast
11:53 PM 61.0 °F 61.0 °F 100% 29.91 in 1.5 mi South 11.5 mph 17.3 mph 0.03 in   Overcast